| time (UTC) | temp F | wind direction | speed knots | gust knots | rain 1hr in | rain 24hr in | rain mn in | humidity % | barometer mb |
| 20260906090406 | 64 | 57 | 5.2 | 8.7 | 0.00 | 0.85 | 0.00 | 92 | 1016.0 |
| 20260906085907 | 64 | 61 | 5.2 | 8.7 | 0.00 | 0.86 | 0.00 | 92 | 1016.0 |
| 20260906085401 | 64 | 58 | 6.1 | 8.7 | 0.00 | 0.86 | 0.00 | 92 | 1015.9 |
| 20260906084856 | 64 | 41 | 5.2 | 7.8 | 0.00 | 0.86 | 0.00 | 92 | 1015.8 |
| 20260906084349 | 64 | 44 | 5.2 | 7.8 | 0.00 | 0.86 | 0.00 | 92 | 1015.8 |
| 20260906083843 | 64 | 55 | 5.2 | 7.8 | 0.00 | 0.86 | 0.00 | 91 | 1015.8 |
| 20260906083337 | 64 | 58 | 6.1 | 9.6 | 0.00 | 0.86 | 0.00 | 90 | 1015.7 |
| 20260906082831 | 65 | 60 | 7.0 | 9.6 | 0.00 | 0.86 | 0.00 | 89 | 1015.7 |
| 20260906082325 | 65 | 68 | 6.1 | 9.6 | 0.00 | 0.86 | 0.00 | 89 | 1015.7 |
| 20260906081819 | 65 | 40 | 6.1 | 8.7 | 0.00 | 0.86 | 0.00 | 89 | 1015.8 |
| 20260906081319 | 65 | 55 | 6.1 | 8.7 | 0.00 | 0.86 | 0.00 | 89 | 1015.8 |
| 20260906080819 | 65 | 61 | 5.2 | 8.7 | 0.00 | 0.86 | 0.00 | 89 | 1015.9 |
| 20260906080318 | 65 | 40 | 6.1 | 8.7 | 0.00 | 0.86 | 0.00 | 89 | 1015.9 |
| 20260906080043 | 65 | 58 | 5.2 | 8.7 | 0.00 | 0.86 | 0.00 | 90 | 1016.0 |
| 20260906075541 | 65 | 46 | 5.2 | 7.8 | 0.00 | 0.86 | 0.00 | 90 | 1016.0 |
| 20260906075043 | 65 | 59 | 5.2 | 7.8 | 0.00 | 0.86 | 0.00 | 89 | 1016.0 |
| 20260906074319 | 65 | 59 | 4.3 | 7.8 | 0.00 | 0.86 | 0.00 | 90 | 1016.0 |
| 20260906073819 | 65 | 50 | 5.2 | 7.8 | 0.00 | 0.86 | 0.00 | 90 | 1016.0 |
| 20260906073319 | 65 | 72 | 5.2 | 7.8 | 0.00 | 0.86 | 0.00 | 90 | 1015.9 |
| 20260906072818 | 65 | 56 | 5.2 | 7.0 | 0.00 | 0.86 | 0.00 | 91 | 1015.9 |
| 20260906072318 | 65 | 49 | 4.3 | 7.0 | 0.00 | 0.86 | 0.00 | 91 | 1015.9 |
| 20260906071818 | 65 | 63 | 4.3 | 7.0 | 0.00 | 0.86 | 0.00 | 91 | 1015.9 |
| 20260906071538 | 65 | 53 | 4.3 | 6.1 | 0.00 | 0.86 | 0.00 | 92 | 1015.9 |
| 20260906070818 | 65 | 64 | 3.5 | 6.1 | 0.00 | 0.86 | 0.00 | 93 | 1015.9 |
| 20260906070318 | 64 | 40 | 3.5 | 6.1 | 0.00 | 0.86 | 0.00 | 93 | 1015.9 |
| 20260906065819 | 64 | 52 | 2.6 | 4.3 | 0.00 | 0.86 | 0.00 | 94 | 1016.0 |
| 20260906065313 | 64 | 44 | 1.7 | 4.3 | 0.00 | 0.86 | 0.00 | 93 | 1016.0 |
| 20260906064807 | 64 | 54 | 2.6 | 4.3 | 0.00 | 0.86 | 0.00 | 93 | 1015.9 |
| 20260906064301 | 64 | 41 | 2.6 | 4.3 | 0.00 | 0.86 | 0.00 | 93 | 1015.8 |
| 20260906063755 | 64 | 36 | 3.5 | 5.2 | 0.00 | 0.86 | 0.00 | 93 | 1015.8 |
| 20260906063249 | 64 | 44 | 2.6 | 5.2 | 0.00 | 0.86 | 0.00 | 93 | 1015.8 |
| 20260906062743 | 64 | 46 | 1.7 | 3.5 | 0.00 | 0.86 | 0.00 | 93 | 1015.9 |
| 20260906062237 | 64 | 50 | 0.9 | 3.5 | 0.00 | 0.86 | 0.00 | 93 | 1015.9 |
| 20260906061731 | 64 | 44 | 0.9 | 2.6 | 0.00 | 0.86 | 0.00 | 93 | 1016.0 |
| 20260906061231 | 64 | 50 | 0.9 | 3.5 | 0.00 | 0.86 | 0.00 | 93 | 1015.9 |
| 20260906060952 | 64 | 51 | 1.7 | 3.5 | 0.00 | 0.86 | 0.00 | 93 | 1015.9 |
| 20260906060454 | 64 | 51 | 1.7 | 3.5 | 0.00 | 0.86 | 0.00 | 93 | 1015.9 |
| 20260906055728 | 64 | 46 | 2.6 | 3.5 | 0.00 | 0.86 | 0.00 | 93 | 1015.9 |
| 20260906055228 | 64 | 43 | 2.6 | 3.5 | 0.00 | 0.86 | 0.00 | 93 | 1015.9 |
| 20260906054729 | 64 | 39 | 2.6 | 4.3 | 0.00 | 0.86 | 0.00 | 93 | 1015.8 |
| 20260906054225 | 64 | 38 | 3.5 | 5.2 | 0.00 | 0.86 | 0.00 | 93 | 1015.7 |
| 20260906053725 | 64 | 52 | 3.5 | 5.2 | 0.00 | 0.86 | 0.00 | 93 | 1015.6 |
| 20260906053225 | 65 | 39 | 3.5 | 5.2 | 0.00 | 0.86 | 0.00 | 93 | 1015.6 |
| 20260906052723 | 65 | 41 | 3.5 | 5.2 | 0.00 | 0.86 | 0.00 | 93 | 1015.5 |
| 20260906052225 | 65 | 32 | 3.5 | 5.2 | 0.00 | 0.86 | 0.00 | 94 | 1015.5 |
| 20260906051722 | 65 | 30 | 2.6 | 4.3 | 0.00 | 0.86 | 0.00 | 94 | 1015.5 |
| 20260906051452 | 65 | 27 | 1.7 | 3.5 | 0.00 | 0.86 | 0.00 | 93 | 1015.4 |
| 20260906050723 | 65 | 24 | 1.7 | 3.5 | 0.00 | 0.86 | 0.00 | 93 | 1015.4 |
| 20260906050223 | 65 | 17 | 1.7 | 3.5 | 0.00 | 0.86 | 0.00 | 93 | 1015.4 |
| 20260906045945 | 65 | 30 | 1.7 | 3.5 | 0.00 | 0.86 | 0.00 | 94 | 1015.4 |
| 20260906045221 | 65 | 37 | 1.7 | 2.6 | 0.00 | 0.86 | 0.00 | 94 | 1015.4 |
| 20260906044721 | 65 | 40 | 1.7 | 2.6 | 0.00 | 0.86 | 0.00 | 94 | 1015.3 |
| 20260906044219 | 65 | 49 | 0.9 | 1.7 | 0.00 | 0.86 | 0.00 | 94 | 1015.2 |
| 20260906043719 | 66 | 53 | 0.0 | 1.7 | 0.00 | 0.86 | 0.00 | 93 | 1015.0 |
| 20260906043221 | 66 | 55 | 0.0 | 0.9 | 0.00 | 0.86 | 0.00 | 93 | 1015.0 |
| 20260906042719 | 66 | 52 | 0.0 | 1.7 | 0.00 | 0.86 | 0.00 | 93 | 1015.1 |
| 20260906042656 | 66 | 52 | 0.9 | 2.6 | 0.00 | 0.86 | 0.00 | 93 | 1015.0 |
| 20260906041941 | 66 | 52 | 1.7 | 3.5 | 0.00 | 0.86 | 0.00 | 93 | 1015.0 |
| 20260906041659 | 67 | 48 | 1.7 | 3.5 | 0.00 | 0.86 | 0.00 | 93 | 1015.0 |
| 20260906040715 | 67 | 49 | 2.6 | 4.3 | 0.00 | 0.86 | 0.00 | 93 | 1015.1 |
| 20260906040214 | 67 | 51 | 2.6 | 4.3 | 0.00 | 0.86 | 0.00 | 93 | 1015.0 |
| 20260906035714 | 67 | 58 | 1.7 | 3.5 | 0.00 | 0.86 | 0.86 | 93 | 1015.0 |
| 20260906035213 | 67 | 60 | 1.7 | 3.5 | 0.00 | 0.86 | 0.86 | 93 | 1015.1 |
| 20260906034716 | 68 | 66 | 2.6 | 5.2 | 0.00 | 0.86 | 0.86 | 93 | 1015.1 |
| 20260906034215 | 68 | 66 | 3.5 | 6.1 | 0.00 | 0.86 | 0.86 | 92 | 1014.9 |
| 20260906033712 | 68 | 64 | 4.3 | 6.1 | 0.00 | 0.86 | 0.86 | 92 | 1014.9 |
| 20260906033212 | 69 | 66 | 5.2 | 7.0 | 0.00 | 0.86 | 0.86 | 91 | 1015.0 |
| 20260906032713 | 69 | 72 | 6.1 | 10.4 | 0.00 | 0.86 | 0.86 | 91 | 1015.1 |
| 20260906032213 | 69 | 72 | 7.0 | 10.4 | 0.00 | 0.86 | 0.86 | 90 | 1015.1 |
| 20260906031711 | 70 | 64 | 6.1 | 8.7 | 0.00 | 0.86 | 0.86 | 91 | 1015.1 |
| 20260906031213 | 70 | 65 | 5.2 | 8.7 | 0.00 | 0.86 | 0.86 | 92 | 1015.1 |
| 20260906030712 | 70 | 63 | 5.2 | 7.8 | 0.00 | 0.86 | 0.86 | 93 | 1015.1 |
| 20260906030213 | 71 | 55 | 5.2 | 7.8 | 0.00 | 0.86 | 0.86 | 95 | 1015.0 |
| 20260906025936 | 71 | 67 | 5.2 | 7.8 | 0.00 | 0.86 | 0.86 | 95 | 1015.1 |
| 20260906025212 | 71 | 64 | 5.2 | 7.0 | 0.00 | 0.86 | 0.86 | 95 | 1015.1 |
| 20260906024713 | 71 | 67 | 5.2 | 8.7 | 0.00 | 0.86 | 0.86 | 96 | 1015.1 |
| 20260906024211 | 71 | 64 | 5.2 | 8.7 | 0.00 | 0.86 | 0.86 | 96 | 1015.1 |
| 20260906023929 | 71 | 66 | 4.3 | 7.0 | 0.00 | 0.86 | 0.86 | 96 | 1015.0 |
| 20260906023431 | 71 | 65 | 3.5 | 6.1 | 0.00 | 0.86 | 0.86 | 96 | 1015.1 |
| 20260906022711 | 72 | 63 | 3.5 | 6.1 | 0.00 | 0.86 | 0.86 | 96 | 1015.1 |
| 20260906022208 | 72 | 70 | 5.2 | 8.7 | 0.00 | 0.86 | 0.86 | 96 | 1015.1 |
| 20260906021709 | 72 | 70 | 5.2 | 8.7 | 0.00 | 0.86 | 0.86 | 95 | 1015.0 |
| 20260906021207 | 72 | 79 | 7.0 | 10.4 | 0.00 | 0.86 | 0.86 | 95 | 1014.9 |
| 20260906020709 | 73 | 74 | 8.7 | 13.0 | 0.00 | 0.86 | 0.86 | 94 | 1014.9 |
| 20260906020208 | 73 | 63 | 9.6 | 14.8 | 0.00 | 0.86 | 0.86 | 94 | 1014.8 |
| 20260906015707 | 73 | 71 | 9.6 | 14.8 | 0.00 | 0.86 | 0.86 | 94 | 1014.7 |
| 20260906015209 | 73 | 75 | 9.6 | 13.9 | 0.00 | 0.86 | 0.86 | 94 | 1014.7 |
| 20260906014709 | 73 | 70 | 8.7 | 13.9 | 0.00 | 0.86 | 0.86 | 94 | 1014.7 |
| 20260906014209 | 73 | 63 | 7.0 | 12.2 | 0.00 | 0.86 | 0.86 | 95 | 1014.7 |
| 20260906013709 | 74 | 68 | 7.0 | 12.2 | 0.00 | 0.86 | 0.86 | 95 | 1014.7 |
| 20260906013208 | 74 | 63 | 6.1 | 10.4 | 0.00 | 0.86 | 0.86 | 95 | 1014.5 |
| 20260906012707 | 74 | 56 | 5.2 | 7.8 | 0.00 | 0.86 | 0.86 | 96 | 1014.6 |
| 20260906012207 | 74 | 53 | 5.2 | 8.7 | 0.00 | 0.86 | 0.86 | 96 | 1014.5 |
| 20260906011708 | 74 | 60 | 5.2 | 8.7 | 0.00 | 0.86 | 0.86 | 96 | 1014.4 |
| 20260906011428 | 73 | 60 | 4.3 | 6.1 | 0.00 | 0.86 | 0.86 | 96 | 1014.4 |
| 20260906010708 | 73 | 51 | 4.3 | 6.1 | 0.00 | 0.86 | 0.86 | 96 | 1014.4 |
| 20260906010208 | 73 | 56 | 3.5 | 6.1 | 0.00 | 0.86 | 0.86 | 96 | 1014.1 |
| 20260906010145 | 73 | 56 | 2.6 | 5.2 | 0.00 | 0.86 | 0.86 | 96 | 1013.9 |
| 20260906005432 | 73 | 64 | 2.6 | 5.2 | 0.00 | 0.86 | 0.86 | 96 | 1014.0 |
| 20260906004930 | 73 | 55 | 2.6 | 5.2 | 0.00 | 0.86 | 0.86 | 95 | 1013.9 |
| 20260906004209 | 73 | 62 | 3.5 | 6.1 | 0.00 | 0.86 | 0.86 | 95 | 1013.7 |
| 20260906003924 | 73 | 53 | 4.3 | 6.1 | 0.00 | 0.86 | 0.86 | 95 | 1013.7 |
| 20260906003427 | 74 | 56 | 3.5 | 7.0 | 0.00 | 0.86 | 0.86 | 95 | 1013.6 |
| 20260906002706 | 74 | 49 | 2.6 | 7.0 | 0.00 | 0.86 | 0.86 | 94 | 1013.8 |
| 20260906002206 | 74 | 53 | 1.7 | 5.2 | 0.00 | 0.86 | 0.86 | 94 | 1013.7 |
| 20260906001700 | 74 | 37 | 2.6 | 4.3 | 0.00 | 0.86 | 0.86 | 94 | 1013.7 |
| 20260906001155 | 74 | 59 | 3.5 | 6.1 | 0.00 | 0.86 | 0.86 | 94 | 1013.4 |
| 20260906000648 | 75 | 53 | 3.5 | 6.1 | 0.00 | 0.86 | 0.86 | 93 | 1013.4 |
| 20260906000142 | 75 | 47 | 3.5 | 5.2 | 0.00 | 0.86 | 0.86 | 93 | 1013.5 |
| 20260905235857 | 75 | 60 | 3.5 | 5.2 | 0.00 | 0.86 | 0.86 | 93 | 1013.5 |
| 20260905235130 | 75 | 58 | 3.5 | 7.0 | 0.00 | 0.86 | 0.86 | 93 | 1013.5 |
| 20260905234630 | 75 | 55 | 4.3 | 7.0 | 0.00 | 0.86 | 0.86 | 93 | 1013.5 |
| 20260905234130 | 75 | 52 | 5.2 | 10.4 | 0.00 | 0.86 | 0.86 | 93 | 1013.4 |
| 20260905233631 | 76 | 49 | 7.0 | 11.3 | 0.00 | 0.86 | 0.86 | 92 | 1013.4 |
| 20260905233128 | 76 | 65 | 7.0 | 11.3 | 0.00 | 0.86 | 0.86 | 91 | 1013.3 |
| 20260905232628 | 76 | 58 | 8.7 | 12.2 | 0.00 | 0.86 | 0.86 | 91 | 1013.4 |
| 20260905232127 | 76 | 58 | 8.7 | 12.2 | 0.00 | 0.86 | 0.86 | 91 | 1013.5 |
| 20260905231627 | 77 | 49 | 7.8 | 11.3 | 0.00 | 0.86 | 0.86 | 91 | 1013.5 |
| 20260905231127 | 78 | 59 | 7.0 | 11.3 | 0.00 | 0.86 | 0.86 | 91 | 1013.6 |
| 20260905230626 | 78 | 44 | 7.0 | 10.4 | 0.00 | 0.86 | 0.86 | 91 | 1013.5 |
| 20260905230123 | 78 | 54 | 6.1 | 10.4 | 0.00 | 0.86 | 0.86 | 91 | 1013.5 |
| 20260905225625 | 78 | 63 | 6.1 | 10.4 | 0.00 | 0.86 | 0.86 | 91 | 1013.4 |
| 20260905225123 | 78 | 53 | 7.0 | 10.4 | 0.00 | 0.86 | 0.86 | 90 | 1013.4 |
| 20260905224621 | 79 | 49 | 7.0 | 12.2 | 0.00 | 0.86 | 0.86 | 90 | 1013.4 |
| 20260905224339 | 79 | 59 | 6.1 | 12.2 | 0.00 | 0.86 | 0.86 | 90 | 1013.4 |
| 20260905223619 | 80 | 56 | 6.1 | 9.6 | 0.00 | 0.86 | 0.86 | 90 | 1013.3 |
| 20260905223117 | 80 | 58 | 7.0 | 10.4 | 0.00 | 0.86 | 0.86 | 89 | 1013.0 |
| 20260905222843 | 80 | 32 | 6.1 | 10.4 | 0.00 | 0.86 | 0.86 | 88 | 1012.8 |
| 20260905222112 | 80 | 33 | 7.0 | 11.3 | 0.00 | 0.86 | 0.86 | 88 | 1012.9 |
| 20260905221606 | 80 | 48 | 7.0 | 11.3 | 0.00 | 0.86 | 0.86 | 88 | 1012.8 |
| 20260905221100 | 81 | 33 | 7.0 | 12.2 | 0.00 | 0.86 | 0.86 | 87 | 1012.7 |
| 20260905220554 | 81 | 32 | 7.0 | 12.2 | 0.00 | 0.86 | 0.86 | 87 | 1012.7 |
| 20260905220048 | 81 | 39 | 6.1 | 9.6 | 0.00 | 0.86 | 0.86 | 88 | 1012.7 |
| 20260905215542 | 81 | 34 | 6.1 | 9.6 | 0.00 | 0.86 | 0.86 | 88 | 1012.8 |
| 20260905215036 | 80 | 43 | 6.1 | 10.4 | 0.00 | 0.86 | 0.86 | 88 | 1012.8 |
| 20260905214530 | 81 | 11 | 3.5 | 10.4 | 0.00 | 0.86 | 0.86 | 87 | 1012.7 |
| 20260905214506 | 81 | 16 | 3.5 | 7.0 | 0.00 | 0.86 | 0.86 | 88 | 1012.7 |
| 20260905213740 | 81 | 30 | 5.2 | 9.6 | 0.00 | 0.86 | 0.86 | 87 | 1012.6 |
| 20260905213012 | 81 | 18 | 6.1 | 9.6 | 0.00 | 0.86 | 0.86 | 86 | 1012.5 |
| 20260905212506 | 81 | 33 | 7.0 | 10.4 | 0.00 | 0.86 | 0.86 | 87 | 1012.4 |
| 20260905212001 | 81 | 6 | 7.0 | 10.4 | 0.00 | 0.86 | 0.86 | 87 | 1012.5 |
| 20260905211454 | 81 | 41 | 7.0 | 9.6 | 0.00 | 0.86 | 0.86 | 87 | 1012.6 |
| 20260905210948 | 81 | 44 | 7.0 | 9.6 | 0.00 | 0.86 | 0.86 | 85 | 1012.7 |
| 20260905210442 | 82 | 45 | 6.1 | 10.4 | 0.00 | 0.86 | 0.86 | 85 | 1012.7 |
| 20260905205937 | 82 | 29 | 6.1 | 10.4 | 0.00 | 0.86 | 0.86 | 85 | 1012.7 |
| 20260905205430 | 83 | 35 | 6.1 | 10.4 | 0.00 | 0.86 | 0.86 | 82 | 1012.8 |
| 20260905205145 | 83 | 2 | 3.5 | 8.7 | 0.00 | 0.86 | 0.86 | 83 | 1012.9 |
| 20260905204418 | 83 | 36 | 2.6 | 5.2 | 0.00 | 0.86 | 0.86 | 83 | 1012.8 |
| 20260905203913 | 83 | 20 | 3.5 | 7.0 | 0.00 | 0.86 | 0.86 | 82 | 1012.9 |
| 20260905203406 | 83 | 54 | 4.3 | 7.0 | 0.00 | 0.86 | 0.86 | 82 | 1013.0 |
| 20260905202900 | 83 | 46 | 4.3 | 7.8 | 0.00 | 0.86 | 0.86 | 82 | 1013.0 |
| 20260905202354 | 84 | 347 | 2.6 | 7.8 | 0.00 | 0.86 | 0.86 | 82 | 1013.0 |
| 20260905201848 | 85 | 354 | 2.6 | 6.1 | 0.00 | 0.86 | 0.86 | 78 | 1013.0 |
| 20260905201608 | 85 | 331 | 3.5 | 7.0 | 0.00 | 0.86 | 0.86 | 78 | 1013.1 |
| 20260905200836 | 84 | 353 | 3.5 | 7.0 | 0.00 | 0.86 | 0.86 | 79 | 1013.1 |
| 20260905200331 | 84 | 32 | 3.5 | 6.1 | 0.00 | 0.86 | 0.86 | 80 | 1013.1 |
| 20260905195831 | 84 | 37 | 2.6 | 6.1 | 0.00 | 0.86 | 0.86 | 78 | 1013.1 |
| 20260905195332 | 84 | 302 | 2.6 | 6.1 | 0.00 | 0.86 | 0.86 | 80 | 1013.2 |
| 20260905194830 | 84 | 30 | 3.5 | 7.8 | 0.00 | 0.86 | 0.86 | 79 | 1013.3 |
| 20260905194330 | 83 | 358 | 3.5 | 7.8 | 0.00 | 0.86 | 0.86 | 81 | 1013.4 |
| 20260905193830 | 83 | 47 | 2.6 | 6.1 | 0.00 | 0.86 | 0.86 | 79 | 1013.5 |
| 20260905193327 | 83 | 338 | 1.7 | 3.5 | 0.00 | 0.86 | 0.86 | 80 | 1013.5 |
| 20260905192828 | 83 | 6 | 2.6 | 4.3 | 0.00 | 0.86 | 0.86 | 81 | 1013.7 |
| 20260905192329 | 83 | 288 | 2.6 | 6.1 | 0.00 | 0.87 | 0.86 | 79 | 1013.7 |
| 20260905191827 | 84 | 337 | 1.7 | 6.1 | 0.00 | 0.87 | 0.86 | 80 | 1013.7 |
| 20260905191326 | 84 | 41 | 1.7 | 5.2 | 0.00 | 0.87 | 0.86 | 79 | 1013.7 |
| 20260905190826 | 83 | 305 | 1.7 | 4.3 | 0.00 | 0.87 | 0.86 | 82 | 1013.8 |
| 20260905190804 | 82 | 298 | 2.6 | 5.2 | 0.00 | 0.87 | 0.86 | 81 | 1013.8 |
| 20260905190421 | 83 | 340 | 2.6 | 5.2 | 0.00 | 0.87 | 0.86 | 81 | 1013.8 |
| 20260905185551 | 82 | 306 | 3.5 | 6.1 | 0.00 | 1.05 | 0.86 | 81 | 1013.9 |
| 20260905184826 | 82 | 281 | 3.5 | 7.8 | 0.00 | 1.36 | 0.86 | 80 | 1014.0 |
| 20260905184324 | 82 | 294 | 3.5 | 7.8 | 0.00 | 1.40 | 0.86 | 80 | 1014.0 |
| 20260905183826 | 82 | 325 | 3.5 | 7.0 | 0.00 | 1.40 | 0.86 | 81 | 1014.0 |
| 20260905183541 | 82 | 307 | 3.5 | 7.0 | 0.00 | 1.40 | 0.86 | 82 | 1014.3 |
| 20260905183307 | 82 | 299 | 3.5 | 6.1 | 0.00 | 1.40 | 0.86 | 81 | 1014.1 |
| 20260905182308 | 82 | 271 | 3.5 | 7.0 | 0.00 | 1.40 | 0.86 | 81 | 1014.3 |
| 20260905181802 | 81 | 284 | 3.5 | 7.0 | 0.00 | 1.40 | 0.86 | 80 | 1014.3 |
| 20260905181257 | 81 | 281 | 2.6 | 6.1 | 0.00 | 1.40 | 0.86 | 81 | 1014.3 |
| 20260905181014 | 81 | 293 | 3.5 | 7.8 | 0.00 | 1.40 | 0.86 | 80 | 1014.4 |
| 20260905180244 | 81 | 300 | 4.3 | 7.8 | 0.00 | 1.40 | 0.86 | 80 | 1014.4 |
| 20260905175738 | 81 | 323 | 3.5 | 7.8 | 0.00 | 1.40 | 0.86 | 82 | 1014.4 |
| 20260905175232 | 81 | 303 | 2.6 | 7.0 | 0.00 | 1.40 | 0.86 | 82 | 1014.3 |
| 20260905174726 | 81 | 316 | 1.7 | 5.2 | 0.00 | 1.40 | 0.86 | 83 | 1014.3 |
| 20260905174220 | 81 | 324 | 1.7 | 5.2 | 0.00 | 1.40 | 0.86 | 82 | 1014.4 |
| 20260905173714 | 80 | 287 | 1.7 | 4.3 | 0.00 | 1.40 | 0.86 | 85 | 1014.4 |
| 20260905173208 | 79 | 242 | 1.7 | 4.3 | 0.00 | 1.40 | 0.86 | 85 | 1014.5 |
| 20260905172702 | 79 | 249 | 0.9 | 3.5 | 0.00 | 1.40 | 0.86 | 87 | 1014.5 |
| 20260905172156 | 78 | 222 | 0.9 | 3.5 | 0.00 | 1.40 | 0.86 | 87 | 1014.5 |
| 20260905171650 | 78 | 275 | 0.9 | 3.5 | 0.00 | 1.40 | 0.86 | 86 | 1014.6 |
| 20260905171144 | 78 | 155 | 0.0 | 1.7 | 0.00 | 1.40 | 0.86 | 89 | 1014.7 |
| 20260905170905 | 76 | 169 | 0.0 | 1.7 | 0.00 | 1.40 | 0.86 | 91 | 1014.7 |
| 20260905170131 | 75 | 155 | 0.0 | 1.7 | 0.00 | 1.40 | 0.86 | 92 | 1014.7 |
| 20260905165626 | 74 | 72 | 0.9 | 3.5 | 0.00 | 1.40 | 0.86 | 92 | 1014.7 |
| 20260905165120 | 74 | 297 | 0.9 | 3.5 | 0.00 | 1.40 | 0.86 | 92 | 1014.7 |
| 20260905164620 | 74 | 285 | 0.9 | 2.6 | 0.00 | 1.40 | 0.86 | 92 | 1014.6 |
| 20260905164120 | 73 | 251 | 1.7 | 4.3 | 0.00 | 1.40 | 0.86 | 94 | 1014.6 |
| 20260905163844 | 73 | 287 | 1.7 | 4.3 | 0.00 | 1.40 | 0.86 | 94 | 1014.7 |
| 20260905163120 | 72 | 297 | 0.9 | 4.3 | 0.00 | 1.40 | 0.86 | 94 | 1014.8 |
| 20260905162847 | 72 | 306 | 0.9 | 2.6 | 0.00 | 1.40 | 0.86 | 95 | 1014.8 |
| 20260905162115 | 72 | 308 | 0.9 | 2.6 | 0.00 | 1.40 | 0.86 | 95 | 1015.1 |
| 20260905161614 | 72 | 326 | 0.9 | 2.6 | 0.00 | 1.40 | 0.86 | 96 | 1015.1 |
| 20260905161115 | 72 | 328 | 1.7 | 5.2 | 0.00 | 1.40 | 0.86 | 96 | 1015.1 |
| 20260905160615 | 71 | 305 | 3.5 | 6.1 | 0.00 | 1.40 | 0.86 | 95 | 1014.9 |
| 20260905160116 | 71 | 300 | 3.5 | 6.1 | 0.00 | 1.40 | 0.86 | 95 | 1015.0 |
| 20260905155836 | 72 | 304 | 3.5 | 6.1 | 0.00 | 1.40 | 0.86 | 95 | 1015.0 |
| 20260905155111 | 72 | 298 | 2.6 | 6.1 | 0.00 | 1.40 | 0.86 | 95 | 1015.0 |
| 20260905154611 | 72 | 316 | 2.6 | 6.1 | 0.00 | 1.40 | 0.86 | 95 | 1015.0 |
| 20260905154111 | 72 | 323 | 2.6 | 6.1 | 0.00 | 1.40 | 0.86 | 95 | 1015.0 |
| 20260905153611 | 73 | 311 | 2.6 | 6.1 | 0.00 | 1.40 | 0.86 | 94 | 1014.9 |
| 20260905153112 | 73 | 18 | 2.6 | 5.2 | 0.00 | 1.40 | 0.86 | 94 | 1014.9 |
| 20260905152834 | 73 | 329 | 1.7 | 3.5 | 0.00 | 1.40 | 0.86 | 94 | 1014.8 |
| 20260905152111 | 73 | 346 | 0.9 | 4.3 | 0.00 | 1.40 | 0.86 | 94 | 1014.7 |
| 20260905151612 | 74 | 16 | 1.7 | 4.3 | 0.00 | 1.40 | 0.86 | 93 | 1014.7 |
| 20260905151112 | 74 | 347 | 0.9 | 2.6 | 0.00 | 1.40 | 0.86 | 93 | 1014.5 |
| 20260905150610 | 74 | 276 | 0.9 | 1.7 | 0.00 | 1.40 | 0.86 | 93 | 1014.4 |
| 20260905150110 | 74 | 48 | 0.9 | 3.5 | 0.00 | 1.40 | 0.86 | 92 | 1014.6 |
| 20260905145612 | 74 | 66 | 0.9 | 3.5 | 0.00 | 1.40 | 0.86 | 92 | 1014.4 |
| 20260905145600 | 74 | 271 | 1.7 | 3.5 | 0.00 | 1.40 | 0.86 | 92 | 1014.1 |
| 20260905145057 | 74 | 231 | 2.6 | 3.5 | 0.00 | 1.40 | 0.86 | 92 | 1014.0 |
| 20260905144330 | 74 | 251 | 2.6 | 5.2 | 0.00 | 1.40 | 0.86 | 92 | 1014.0 |
| 20260905143834 | 74 | 246 | 2.6 | 5.2 | 0.00 | 1.40 | 0.86 | 91 | 1014.0 |
| 20260905143332 | 74 | 210 | 2.6 | 5.2 | 0.00 | 1.40 | 0.86 | 92 | 1013.9 |
| 20260905142605 | 74 | 226 | 2.6 | 5.2 | 0.00 | 1.40 | 0.86 | 93 | 1014.0 |
| 20260905142318 | 74 | 236 | 2.6 | 6.1 | 0.00 | 1.40 | 0.86 | 93 | 1013.8 |
| 20260905141819 | 73 | 236 | 2.6 | 6.1 | 0.00 | 1.40 | 0.86 | 94 | 1013.8 |
| 20260905141313 | 73 | 250 | 2.6 | 6.1 | 0.00 | 1.40 | 0.86 | 96 | 1013.8 |
| 20260905140541 | 72 | 245 | 2.6 | 7.0 | 0.00 | 1.40 | 0.86 | 97 | 1013.9 |
| 20260905140036 | 72 | 284 | 1.7 | 7.0 | 0.00 | 1.40 | 0.86 | 100 | 1014.0 |
| 20260905135529 | 71 | 243 | 1.7 | 5.2 | 0.00 | 1.40 | 0.86 | 100 | 1013.8 |
| 20260905135030 | 71 | 231 | 1.7 | 5.2 | 0.00 | 1.40 | 0.86 | 100 | 1013.8 |
| 20260905134753 | 70 | 189 | 2.6 | 7.8 | 0.01 | 1.40 | 0.86 | 100 | 1013.8 |
| 20260905134513 | 70 | 217 | 2.6 | 7.8 | 0.10 | 1.40 | 0.86 | 100 | 1013.9 |
| 20260905133527 | 69 | 238 | 2.6 | 7.0 | 0.11 | 1.40 | 0.86 | 100 | 1013.8 |
| 20260905133026 | 69 | 219 | 2.6 | 7.8 | 0.11 | 1.40 | 0.86 | 100 | 1013.9 |
| 20260905132527 | 68 | 249 | 1.7 | 7.8 | 0.11 | 1.40 | 0.86 | 100 | 1013.9 |
| 20260905132025 | 68 | 212 | 0.9 | 3.5 | 0.11 | 1.40 | 0.86 | 100 | 1014.0 |
| 20260905131525 | 67 | 240 | 0.0 | 3.5 | 0.11 | 1.40 | 0.86 | 100 | 1014.1 |
| 20260905131026 | 67 | 257 | 0.9 | 1.7 | 0.11 | 1.40 | 0.86 | 100 | 1014.3 |
| 20260905130748 | 67 | 164 | 0.9 | 3.5 | 0.11 | 1.40 | 0.86 | 100 | 1014.5 |
| 20260905130022 | 67 | 163 | 0.9 | 3.5 | 0.11 | 1.40 | 0.86 | 100 | 1014.6 |
| 20260905125521 | 67 | 141 | 0.9 | 5.2 | 0.11 | 1.40 | 0.86 | 100 | 1014.8 |
| 20260905125022 | 67 | 233 | 2.6 | 5.2 | 0.11 | 1.40 | 0.86 | 100 | 1015.0 |
| 20260905124521 | 67 | 132 | 1.7 | 5.2 | 0.08 | 1.37 | 0.85 | 100 | 1015.0 |
| 20260905124017 | 67 | 96 | 0.9 | 4.3 | 0.01 | 1.30 | 0.77 | 100 | 1015.3 |
| 20260905123744 | 67 | 53 | 3.5 | 6.1 | 0.00 | 1.29 | 0.75 | 100 | 1015.7 |
| 20260905123017 | 67 | 77 | 5.2 | 6.1 | 0.00 | 1.29 | 0.75 | 100 | 1015.4 |
| 20260905122510 | 67 | 98 | 4.3 | 6.1 | 0.00 | 1.29 | 0.75 | 100 | 1015.0 |
| 20260905122010 | 66 | 89 | 3.5 | 6.1 | 0.00 | 1.29 | 0.75 | 100 | 1015.1 |
| 20260905121509 | 66 | 120 | 2.6 | 6.1 | 0.00 | 1.29 | 0.75 | 100 | 1015.1 |
| 20260905121008 | 66 | 88 | 2.6 | 4.3 | 0.01 | 1.29 | 0.75 | 100 | 1015.3 |
| 20260905120510 | 66 | 73 | 1.7 | 4.3 | 0.08 | 1.29 | 0.75 | 100 | 1015.4 |
| 20260905120229 | 66 | 83 | 1.7 | 6.1 | 0.16 | 1.29 | 0.75 | 100 | 1015.2 |
| 20260905115725 | 66 | 118 | 1.7 | 6.1 | 0.18 | 1.29 | 0.75 | 100 | 1015.2 |
| 20260905115006 | 66 | 131 | 1.7 | 3.5 | 0.28 | 1.29 | 0.75 | 100 | 1015.3 |
| 20260905114506 | 66 | 154 | 0.9 | 3.5 | 0.36 | 1.29 | 0.75 | 100 | 1015.5 |
| 20260905114002 | 66 | 141 | 0.9 | 4.3 | 0.42 | 1.29 | 0.75 | 100 | 1015.4 |
| 20260905113503 | 66 | 114 | 2.6 | 6.1 | 0.44 | 1.29 | 0.75 | 100 | 1015.4 |
| 20260905113004 | 66 | 98 | 4.3 | 7.0 | 0.46 | 1.29 | 0.75 | 100 | 1015.3 |
| 20260905112502 | 66 | 105 | 3.5 | 8.7 | 0.48 | 1.29 | 0.75 | 100 | 1015.2 |
| 20260905112002 | 66 | 155 | 5.2 | 13.0 | 0.55 | 1.29 | 0.75 | 100 | 1015.3 |
| 20260905111502 | 65 | 132 | 6.1 | 13.0 | 0.58 | 1.29 | 0.75 | 100 | 1015.1 |
| 20260905111002 | 65 | 101 | 3.5 | 11.3 | 0.62 | 1.27 | 0.74 | 100 | 1014.9 |
| 20260905110727 | 66 | 117 | 4.3 | 11.3 | 0.58 | 1.21 | 0.67 | 100 | 1015.3 |
| 20260905110436 | 66 | 84 | 7.8 | 12.2 | 0.49 | 1.11 | 0.57 | 99 | 1015.7 |
| 20260905110352 | 66 | 75 | 7.8 | 12.2 | 0.50 | 1.13 | 0.59 | 100 | 1016.2 |
| 20260905104951 | 66 | 64 | 4.3 | 9.6 | 0.39 | 1.01 | 0.50 | 99 | 1016.3 |
| 20260905104445 | 67 | 59 | 4.3 | 9.6 | 0.31 | 0.93 | 0.39 | 98 | 1016.7 |
| 20260905103939 | 67 | 37 | 6.1 | 11.3 | 0.25 | 0.87 | 0.33 | 97 | 1016.6 |
| 20260905103659 | 67 | 66 | 7.8 | 11.3 | 0.23 | 0.85 | 0.31 | 97 | 1015.9 |
| 20260905102927 | 67 | 60 | 8.7 | 13.0 | 0.21 | 0.83 | 0.29 | 98 | 1015.6 |
| 20260905102421 | 67 | 61 | 9.6 | 13.0 | 0.17 | 0.79 | 0.26 | 97 | 1015.7 |
| 20260905101915 | 67 | 58 | 9.6 | 13.9 | 0.11 | 0.73 | 0.20 | 97 | 1016.2 |
| 20260905101409 | 67 | 64 | 9.6 | 15.6 | 0.09 | 0.70 | 0.17 | 96 | 1015.8 |
| 20260905100903 | 67 | 57 | 8.7 | 15.6 | 0.07 | 0.64 | 0.11 | 95 | 1015.7 |
| 20260905100627 | 67 | 46 | 9.6 | 17.4 | 0.08 | 0.63 | 0.09 | 94 | 1016.0 |
| 20260905100124 | 68 | 50 | 7.8 | 17.4 | 0.09 | 0.63 | 0.09 | 94 | 1015.9 |
| 20260905095359 | 67 | 69 | 7.0 | 11.3 | 0.08 | 0.62 | 0.08 | 96 | 1015.9 |
| 20260905094900 | 67 | 58 | 7.8 | 10.4 | 0.08 | 0.62 | 0.08 | 96 | 1015.9 |
| 20260905094400 | 67 | 59 | 7.8 | 10.4 | 0.08 | 0.62 | 0.08 | 96 | 1015.8 |
| 20260905093900 | 67 | 58 | 7.0 | 11.3 | 0.08 | 0.62 | 0.08 | 96 | 1016.1 |
| 20260905093400 | 67 | 53 | 8.7 | 15.6 | 0.08 | 0.62 | 0.08 | 96 | 1016.2 |
| 20260905092900 | 67 | 30 | 9.6 | 15.6 | 0.08 | 0.62 | 0.08 | 96 | 1016.3 |
| 20260905092400 | 67 | 47 | 9.6 | 13.9 | 0.08 | 0.62 | 0.08 | 97 | 1016.4 |
| 20260905091900 | 67 | 47 | 9.6 | 15.6 | 0.08 | 0.62 | 0.08 | 97 | 1016.5 |
| 20260905091402 | 67 | 53 | 10.4 | 15.6 | 0.07 | 0.61 | 0.07 | 96 | 1016.7 |
| 20260905090900 | 67 | 34 | 11.3 | 19.1 | 0.03 | 0.57 | 0.03 | 95 | 1016.5 |